Flag for Canada Weather past 2 weeks in Markham, Ontario, Canada

Now
77 °F

Broken clouds.


Feels Like: 79 °F
Forecast: 59 / 76 °F
Wind: 13 mph from Southwest

Location: Toronto Buttonville

Current Time: May 27, 2015 at 8:12:28 PM

Latest Report: May 27, 2015 at 7:00 PM


Visibility: 15 mi

Pressure: 29.93 "Hg

Humidity: 47%

Dew point: 55 °F

Location of MarkhamLocation

Historic Weather in Markham — Graph

°F

Markham temperature yesterday

Maximum temperature yesterday: 82 °F (at 12:00 PM)
Minimum temperature yesterday: 68 °F (at 3:00 AM)
Average temperature yesterday: 75 °F

Past Weeks' High & Low Weather Summary

 TemperatureHumidityPressure
High82 °F (May 18, 2:00 PM)93% (May 13, 6:00 AM)30.49 "Hg (May 13, 6:00 AM)
Low37 °F (May 20, 6:00 AM)19% (May 23, 4:00 PM)29.83 "Hg (May 21, 5:00 PM)
Average61 °F55%30.10 "Hg
* Reported May 12 6:00 PM — May 27 6:00 PM, Markham, Weather by CustomWeather, © 2015

Note: Actual official high and low records may vary slightly from our data, if they occured in-between our weather recording intervals... More about our weather records

Advertising

Markham weather history for previous 24 hours

 ConditionsComfort  
Time TempWeatherWind HumidityBarometerVisibility
6:00 PM
Wed, May 27
75 °FPartly sunny.10 mph57%29.93 "Hg15 mi
5:00 PM82 °FScattered showers. Scattered clouds.14 mph45%29.90 "Hg15 mi
4:00 PM81 °FScattered clouds.14 mph45%29.90 "Hg15 mi
3:00 PM79 °FScattered clouds.22 mph54%29.92 "Hg15 mi
2:49 PM79 °FScattered clouds.25 mph54%29.92 "Hg15 mi
2:00 PM79 °FScattered clouds.18 mph58%29.93 "Hg15 mi
1:00 PM79 °FScattered clouds.21 mph58%29.95 "Hg13 mi
12:00 PM77 °FBroken clouds.18 mph61%29.96 "Hg12 mi
11:00 AM77 °FBroken clouds.13 mph61%29.96 "Hg12 mi
10:00 AM75 °FBroken clouds.9 mph61%29.96 "Hg14 mi
9:00 AM73 °FPartly sunny.14 mph69%29.96 "Hg13 mi
8:00 AM72 °FPartly sunny.9 mph73%29.95 "Hg13 mi
7:00 AM70 °FCloudy.7 mph78%29.93 "Hg15 mi
6:00 AM68 °FMostly cloudy.7 mph83%29.92 "Hg15 mi
5:00 AM70 °FPassing clouds.10 mph78%29.91 "Hg15 mi
4:00 AM70 °FPassing clouds.9 mph78%29.90 "Hg15 mi
3:00 AM70 °FPassing clouds.7 mph78%29.90 "Hg15 mi
2:00 AM66 °FPartly cloudy.5 mph78%29.91 "Hg15 mi
1:00 AM64 °FPassing clouds.6 mph83%29.94 "Hg15 mi
12:00 AM66 °FPassing clouds.7 mph78%29.95 "Hg15 mi
11:00 PM
Tue, May 26
72 °FPassing clouds.9 mph73%29.95 "Hg15 mi
10:00 PM73 °FPassing clouds.9 mph69%29.96 "Hg15 mi
9:00 PM75 °FScattered clouds.10 mph65%29.94 "Hg15 mi
8:00 PM79 °FPartly sunny.10 mph58%29.95 "Hg15 mi
Weather by CustomWeather, © 2015

See weather overviewHow to use our weather pages